FW9262 Weather Reports


time (UTC)temp
F
wind
direction
speed
knots
gust
knots
rain 1hr
in
rain 24hr
in
rain mn
in
humidity
%
barometer
mb
20260503184842 66 330 4.3 6.1 0.00 0.00 0.00 64 1017.3
20260503184339 66 291 1.7 6.1 0.00 0.00 0.00 64 1017.0
20260503183835 65 235 1.7 3.5 0.00 0.00 0.00 65 1017.3
20260503183332 66 228 1.7 5.2 0.00 0.00 0.00 63 1017.3
20260503182830 66 229 1.7 2.6 0.00 0.00 0.00 65 1017.3
20260503182329 66 344 0.9 1.7 0.00 0.00 0.00 64 1017.3
20260503181825 65 323 0.0 1.7 0.00 0.00 0.00 65 1017.3
20260503181322 66 271 1.7 3.5 0.00 0.00 0.00 65 1017.3
20260503180819 64 336 0.9 0.9 0.00 0.00 0.00 68 1017.0
20260503180317 64 268 0.9 2.6 0.00 0.00 0.00 68 1017.3
20260503175813 63 282 0.9 2.6 0.00 0.00 0.00 69 1017.0
20260503175311 63 276 1.7 2.6 0.00 0.00 0.00 70 1017.3
20260503174806 63 312 0.0 0.0 0.00 0.00 0.00 71 1017.3
20260503174305 63 349 0.9 0.9 0.00 0.00 0.00 72 1017.3
20260503173800 62 254 1.7 1.7 0.00 0.00 0.00 72 1017.3
20260503173255 62 251 1.7 2.6 0.00 0.00 0.00 73 1017.3
20260503172753 62 342 1.7 6.1 0.00 0.00 0.00 73 1017.3
20260503172250 62 313 1.7 2.6 0.00 0.00 0.00 73 1017.3
20260503171746 62 234 1.7 2.6 0.00 0.00 0.00 74 1017.0
20260503171243 62 265 1.7 1.7 0.00 0.00 0.00 74 1017.3
20260503170740 62 284 0.0 0.0 0.00 0.00 0.00 75 1017.0
20260503170237 61 255 2.6 2.6 0.00 0.00 0.00 75 1017.0
20260503160159 60 256 2.6 3.5 0.00 0.00 0.00 77 1017.0
20260503150629 60 264 0.9 1.7 0.00 0.00 0.00 78 1016.3
20260503150125 60 312 0.0 0.0 0.00 0.00 0.00 79 1016.3
20260503131019 59 313 0.0 0.9 0.00 0.00 0.00 85 1015.3
20260503130517 59 305 0.0 2.6 0.00 0.00 0.00 85 1015.3
20260503110407 60 342 0.0 0.0 0.00 0.00 0.00 82 1015.3
20260503090258 60 318 0.0 0.0 0.00 0.00 0.00 81 1016.0
20260503081231 60 313 0.0 0.9 0.00 0.00 0.00 85 1016.0
20260503080726 60 287 0.0 1.7 0.00 0.00 0.00 85 1016.0
20260503080224 60 335 0.0 1.7 0.00 0.00 0.00 86 1016.0
20260503072700 60 335 0.0 1.7 0.00 0.00 0.00 87 1015.6
20260503072157 59 311 0.0 0.9 0.00 0.00 0.00 87 1016.0
20260503071654 59 324 0.0 2.6 0.00 0.00 0.00 87 1015.6
20260503071151 59 288 0.9 1.7 0.00 0.00 0.00 87 1015.6
20260503070648 59 274 0.0 1.7 0.00 0.00 0.00 87 1015.6
20260503070146 59 341 0.9 0.9 0.00 0.00 0.00 87 1015.3
20260503060110 59 342 0.0 0.9 0.00 0.00 0.00 88 1015.3
20260503055101 59 223 1.7 2.6 0.00 0.00 0.00 88 1015.6
20260503054557 59 326 0.0 0.9 0.00 0.00 0.00 88 1015.3
20260503054054 59 336 0.0 1.7 0.00 0.00 0.00 88 1015.3
20260503053552 59 304 0.0 0.0 0.00 0.00 0.00 89 1015.6
20260503053050 59 305 0.9 1.7 0.00 0.00 0.00 89 1015.6
20260503052547 59 267 1.7 1.7 0.00 0.00 0.00 89 1015.6
20260503052043 59 323 0.0 1.7 0.00 0.00 0.00 88 1015.6
20260503051538 60 310 0.9 2.6 0.00 0.00 0.00 89 1015.6
20260503051037 60 290 1.7 2.6 0.00 0.00 0.00 89 1015.6
20260503050532 60 251 0.9 2.6 0.00 0.00 0.00 89 1015.6
20260503050030 60 198 1.7 2.6 0.00 0.00 0.00 89 1016.0
20260503045527 60 273 0.9 2.6 0.00 0.00 0.00 90 1015.6
20260503045024 60 328 0.9 2.6 0.00 0.00 0.00 90 1015.6
20260503044520 60 300 0.9 3.5 0.00 0.00 0.00 90 1015.3
20260503044018 60 268 0.0 2.6 0.00 0.00 0.00 90 1015.3
20260503043514 60 283 0.9 1.7 0.00 0.00 0.00 90 1015.3
20260503043011 60 274 0.9 0.9 0.00 0.00 0.00 90 1015.3
20260503042508 60 202 0.9 2.6 0.00 0.00 0.00 90 1015.3
20260503042004 60 321 0.9 2.6 0.00 0.00 0.00 90 1014.9
20260503041501 60 284 0.9 1.7 0.00 0.00 0.00 89 1014.9
20260503040959 60 321 0.9 1.7 0.00 0.00 0.00 90 1014.9
20260503040456 60 324 0.0 0.0 0.00 0.00 0.00 90 1014.6
20260503035953 60 312 0.9 2.6 0.00 0.00 0.00 90 1014.9
20260503035449 60 228 0.9 2.6 0.00 0.00 0.00 90 1014.9
20260503034947 60 337 0.0 1.7 0.00 0.00 0.00 90 1014.6
20260503034444 60 284 0.9 1.7 0.00 0.00 0.00 89 1014.6
20260503033941 60 235 1.7 1.7 0.00 0.00 0.00 89 1014.6
20260503033439 60 276 1.7 1.7 0.00 0.00 0.00 89 1014.3
20260503032937 60 305 0.0 1.7 0.00 0.00 0.00 89 1014.3
20260503032435 60 285 0.9 1.7 0.00 0.00 0.00 89 1014.3
20260503031932 60 313 0.0 0.9 0.00 0.00 0.00 89 1013.9
20260503031430 60 330 1.7 2.6 0.00 0.00 0.00 89 1013.9
20260503030926 60 334 0.0 0.0 0.00 0.00 0.00 89 1013.6
20260503030423 60 339 0.0 3.5 0.00 0.00 0.00 88 1013.9
20260503025920 60 308 0.9 2.6 0.00 0.00 0.00 88 1013.6
20260503025417 60 321 0.0 1.7 0.00 0.00 0.00 88 1013.9
20260503024914 60 328 0.0 1.7 0.00 0.00 0.00 88 1013.6
20260503024410 60 246 0.0 2.6 0.00 0.00 0.00 88 1013.6
20260503023908 60 308 0.9 1.7 0.00 0.00 0.00 88 1013.6
20260503023404 60 299 1.7 2.6 0.00 0.00 0.00 87 1013.6
20260503022901 60 256 1.7 3.5 0.00 0.00 0.00 87 1013.6
20260503022355 60 290 0.9 3.5 0.00 0.00 0.00 87 1013.2
20260503021852 61 272 1.7 2.6 0.00 0.00 0.00 86 1013.6
20260503021349 61 290 1.7 2.6 0.00 0.00 0.00 85 1013.2
20260503020846 61 341 0.9 1.7 0.00 0.00 0.00 85 1013.2
20260503020344 61 279 2.6 3.5 0.00 0.00 0.00 84 1013.2
20260503015840 61 283 2.6 3.5 0.00 0.00 0.00 84 1013.6
20260503015337 62 265 0.9 2.6 0.00 0.00 0.00 84 1013.2
20260503014833 61 302 0.9 1.7 0.00 0.00 0.00 84 1013.2
20260503014331 61 346 1.7 2.6 0.00 0.00 0.00 84 1013.2
20260503013828 62 209 3.5 5.2 0.00 0.00 0.00 83 1013.2
20260503013325 62 153 1.7 2.6 0.00 0.00 0.00 83 1013.2
20260503012822 62 251 1.7 3.5 0.00 0.00 0.00 83 1013.2
20260503012320 62 248 2.6 3.5 0.00 0.00 0.00 82 1013.2
20260503011816 63 310 1.7 3.5 0.00 0.00 0.00 81 1013.2
20260503011313 62 306 0.9 3.5 0.00 0.00 0.00 82 1013.2
20260503010809 62 321 1.7 5.2 0.00 0.00 0.00 82 1013.2
20260503010307 62 342 1.7 3.5 0.00 0.00 0.00 82 1013.2
20260503005804 63 293 1.7 2.6 0.00 0.00 0.00 81 1013.2
20260503005304 62 236 3.5 7.0 0.00 0.00 0.00 81 1012.9
20260503004756 63 282 1.7 2.6 0.00 0.00 0.00 81 1013.2
20260503004255 63 332 0.9 2.6 0.00 0.00 0.00 80 1013.2
20260503003752 63 310 2.6 5.2 0.00 0.00 0.00 80 1013.2
20260503003249 63 301 1.7 3.5 0.00 0.00 0.00 80 1013.2
20260503002745 63 306 1.7 3.5 0.00 0.00 0.00 81 1013.2
20260503002243 63 282 2.6 5.2 0.00 0.00 0.00 80 1013.2
20260503001739 63 244 0.9 5.2 0.00 0.00 0.00 81 1013.2
20260503001235 63 241 2.6 5.2 0.00 0.00 0.00 80 1013.2
20260503000733 64 234 4.3 5.2 0.00 0.00 0.00 78 1013.2
20260503000233 64 199 1.7 5.2 0.00 0.00 0.00 78 1013.2
20260502235727 64 330 0.0 1.7 0.00 0.00 0.00 78 1013.2
20260502235225 64 304 1.7 3.5 0.00 0.00 0.00 78 1013.2
20260502234721 64 241 1.7 3.5 0.00 0.00 0.00 79 1013.2
20260502234218 65 286 2.6 5.2 0.00 0.00 0.00 78 1013.2
20260502233714 64 19 1.7 5.2 0.00 0.00 0.00 78 1013.2
20260502233211 65 222 1.7 3.5 0.00 0.00 0.00 77 1013.2
20260502232707 64 292 1.7 2.6 0.00 0.00 0.00 78 1013.6
20260502232204 64 292 0.9 5.2 0.00 0.00 0.00 79 1013.6
20260502231701 65 356 1.7 5.2 0.00 0.00 0.00 77 1013.6
20260502231159 65 177 1.7 6.1 0.00 0.00 0.00 77 1013.2
20260502230657 64 349 0.9 1.7 0.00 0.00 0.00 78 1013.2
20260502230155 65 216 2.6 3.5 0.00 0.00 0.00 78 1013.6
20260502225650 64 234 2.6 5.2 0.00 0.00 0.00 78 1013.6
20260502225148 64 300 3.5 7.0 0.00 0.00 0.00 78 1013.9
20260502224644 64 266 1.7 2.6 0.00 0.00 0.00 78 1013.9
20260502224141 65 293 3.5 6.1 0.00 0.00 0.00 77 1014.3
20260502223639 64 270 1.7 6.1 0.00 0.00 0.00 79 1014.3
20260502223137 64 277 2.6 7.0 0.00 0.00 0.00 79 1014.3
20260502222634 64 280 1.7 2.6 0.00 0.00 0.00 79 1014.6
20260502222131 64 279 1.7 7.0 0.00 0.00 0.00 79 1014.6
20260502221626 64 215 3.5 6.1 0.00 0.00 0.00 79 1014.6
20260502221123 64 152 2.6 6.1 0.00 0.00 0.00 79 1014.6
20260502220619 65 207 2.6 6.1 0.00 0.00 0.00 78 1015.3
20260502220110 64 353 0.9 5.2 0.00 0.00 0.00 79 1014.9
20260502215608 64 157 3.5 6.1 0.00 0.00 0.00 80 1015.3
20260502215104 64 239 5.2 7.8 0.00 0.00 0.00 78 1015.3
20260502214601 65 289 1.7 5.2 0.00 0.00 0.00 77 1015.3
20260502214059 66 301 0.9 3.5 0.00 0.00 0.00 77 1015.3
20260502213555 66 267 1.7 5.2 0.00 0.00 0.00 76 1015.6
20260502213053 66 312 1.7 3.5 0.00 0.00 0.00 77 1015.6
20260502212552 65 238 2.6 5.2 0.00 0.00 0.00 78 1016.0
20260502212049 66 235 2.6 5.2 0.00 0.00 0.00 77 1015.6
20260502211544 66 292 2.6 6.1 0.00 0.00 0.00 77 1015.6
20260502211042 66 294 1.7 6.1 0.00 0.00 0.00 77 1016.0
20260502210539 66 206 1.7 5.2 0.00 0.00 0.00 76 1016.0
20260502210036 67 293 2.6 5.2 0.00 0.00 0.00 75 1015.6
20260502205532 68 211 2.6 5.2 0.00 0.00 0.00 75 1016.0
20260502205030 67 243 2.6 6.1 0.00 0.00 0.00 75 1016.0
20260502204526 66 316 1.7 5.2 0.00 0.00 0.00 76 1016.0
20260502204024 67 247 4.3 6.1 0.00 0.00 0.00 76 1016.0
20260502203521 67 182 2.6 6.1 0.00 0.00 0.00 75 1016.0
20260502203018 68 159 2.6 3.5 0.00 0.00 0.00 73 1015.6
20260502202514 67 249 1.7 3.5 0.00 0.00 0.00 75 1016.0
20260502202013 67 237 0.9 3.5 0.00 0.00 0.00 75 1016.0
20260502201508 67 334 0.9 3.5 0.00 0.00 0.00 75 1016.0
20260502201004 66 184 1.7 5.2 0.00 0.00 0.00 77 1015.6
20260502200501 67 309 1.7 2.6 0.00 0.00 0.00 76 1016.0
20260502195959 66 252 1.7 3.5 0.00 0.00 0.00 78 1015.6
20260502195456 66 261 1.7 5.2 0.00 0.00 0.00 78 1016.0
20260502194951 67 315 3.5 3.5 0.00 0.00 0.00 76 1016.0
20260502194449 67 241 2.6 5.2 0.00 0.00 0.00 76 1016.3
20260502193944 67 228 1.7 3.5 0.00 0.00 0.00 77 1016.0
20260502193442 66 265 0.9 3.5 0.00 0.00 0.00 78 1016.3
20260502192938 66 250 1.7 5.2 0.00 0.00 0.00 78 1016.6
20260502192435 65 271 1.7 3.5 0.00 0.00 0.00 79 1016.3
20260502191931 65 244 1.7 3.5 0.00 0.00 0.00 79 1016.6
20260502191429 66 343 1.7 2.6 0.00 0.00 0.00 78 1016.6
20260502190927 65 290 0.9 3.5 0.00 0.00 0.00 79 1016.6
20260502190424 65 296 0.9 3.5 0.00 0.00 0.00 80 1017.0
20260502185920 64 259 2.6 5.2 0.00 0.00 0.00 82 1017.0
20260502185415 64 198 1.7 6.1 0.00 0.00 0.00 82 1017.3
20260502184913 64 222 2.6 5.2 0.00 0.00 0.00 82 1017.0